Location: Mahannah Oil Field
(37.4664°N, 96.6003°W)
Time: 01:12:35
(UTC+00:00)

deb Explorer IX - Pass Details

Date: 21 January 2021
Orbit: 537 x 1102 km, 38.8° (Epoch: 25 February)

Event Time Altitude Azimuth Distance (km) Brightness Sun altitude
Rises 02:24:38 0° 257° (WSW) 3,465 ? -32.9°
Reaches altitude 10° 02:27:23 10° 258° (WSW) 2,431 ? -33.4°
Enters shadow 02:30:54 37° 259° (W) 1,171 ? -34.1°
Maximum altitude 02:33:05 89° 344° (NNW) 735 - -34.5°
Drops below altitude 10° 02:37:54 10° 79° (E) 2,061 - -35.5°
Sets 02:40:04 0° 79° (E) 2,900 - -35.9°
